This demonstration page uses our WeatherBlox Daily Observations layout. Learn more.

Hourly Observations for July 12, 2017

Temp ( °F °C ) Dew Point ( °F °C ) Humidity (%) Winds ( mph kmh ) Pressure ( in mb ) Visibility ( mi km ) Precip ( " mm )
12:54 am 00:54 Mostly Clear 87 30.6 69 20.6 55 55 SSW 14 22 29.69 1006 10 16.0934 0 0
1:54 am 01:54 Clear 86 30 69 20.6 57 57 N 13 20 29.74 1007 10 16.0934 0 0
2:54 am 02:54 Clear 86 30 68 20 55 55 Calm 29.75 1008 10 16.0934 0 0
3:54 am 03:54 Mostly Cloudy with Light Rain 83 28.3 68 20 61 61 S 8 13 29.76 1008 10 16.0934 0 0.0254
4:54 am 04:54 Mostly Cloudy 82 27.8 67 19.4 60 60 SSW 3 6 29.76 1008 10 16.0934 0.01 0.254
5:54 am 05:54 Clear with Light Rain 80 26.7 67 19.4 64 64 SE 7 11 29.78 1009 10 16.0934 0 0.0254
6:54 am 06:54 Sunny 78 25.6 67 19.4 69 69 S 7 11 29.8 1009 10 16.0934 0 0.0254
7:54 am 07:54 Sunny 79 26.1 67 19.4 67 67 SW 5 7 29.82 1010 10 16.0934 0 0
8:54 am 08:54 Mostly Sunny 78 25.6 68 20 71 71 SSW 9 15 29.8 1009 10 16.0934 0 0
9:54 am 09:54 Mostly Cloudy 79 26.1 69 20.6 72 72 NW 3 6 29.81 1010 10 16.0934 0 0.0254
10:54 am 10:54 Sunny 82 27.8 69 20.6 65 65 Calm 29.85 1011 10 16.0934 0 0
11:54 am 11:54 Sunny 80 26.7 70 21.1 71 71 S 5 7 29.85 1011 10 16.0934 0 0
12:54 pm 12:54 Sunny 80 26.7 70 21.1 71 71 S 5 7 29.86 1011 10 16.0934 0 0
1:54 pm 13:54 Sunny 82 27.8 69 20.6 65 65 S 6 9 29.87 1012 10 16.0934 0 0
2:54 pm 14:54 Sunny 85 29.4 69 20.6 59 59 Calm 29.87 1012 10 16.0934 0 0
3:54 pm 15:54 Sunny 83 28.3 73 22.8 72 72 N 10 17 29.91 1013 10 16.0934 0 0
4:54 pm 16:54 Sunny 80 26.7 69 20.6 69 69 NE 9 15 29.92 1013 10 16.0934 0 0
5:54 pm 17:54 Sunny 79 26.1 70 21.1 74 74 NE 7 11 29.94 1014 10 16.0934 0 0
6:54 pm 18:54 Sunny 78 25.6 70 21.1 76 76 NNE 6 9 29.92 1013 10 16.0934 0 0
7:54 pm 19:54 Partly Cloudy with Light Rain 76 24.4 71 21.7 85 85 NNE 8 13 29.93 1014 10 16.0934 0 0.0254
8:06 pm 20:06 Partly Cloudy with Nearby Thunderstorms 75 23.9 72 22.2 90 90 NE 3 6 29.91 1013 10 16.0934 0 0.0254
8:33 pm 20:33 Cloudy with Thunderstorms 74 23.3 71 21.7 91 91 ENE 7 11 29.91 1013 2.5 4.02335 0.03 0.762
8:46 pm 20:46 Cloudy with Light Rain 75 23.9 71 21.7 88 88 SE 7 11 29.91 1013 5 8.0467 0.11 2.794
8:54 pm 20:54 Cloudy with Thunderstorms 75 23.9 71 21.7 88 88 Calm 29.93 1014 10 16.0934 0.11 2.794
9:00 pm 21:00 Cloudy with Heavy Thunderstorms 74 23.3 71 21.7 91 91 Calm 29.97 1015 1.75 2.816345 0 0.0254
9:08 pm 21:08 Cloudy with Nearby Thunderstorms 74 23.3 72 22.2 94 94 NW 17 28 30 1016 1.5 2.41401 0.15 3.81
9:13 pm 21:13 Cloudy with Nearby Thunderstorms 74 23.3 71 21.7 91 91 N 8 13 29.97 1015 3 4.82802 0.21 5.334
9:21 pm 21:21 Cloudy with Light Thunderstorms 74 23.3 71 21.7 91 91 ENE 7 11 29.97 1015 9 14.48406 0.22 5.588
9:36 pm 21:36 Cloudy with Nearby Thunderstorms 74 23.3 70 21.1 88 88 ESE 9 15 29.97 1015 10 16.0934 0.22 5.588
9:54 pm 21:54 Mostly Cloudy with Nearby Thunderstorms 73 22.8 70 21.1 90 90 ENE 8 13 29.95 1014 10 16.0934 0.22 5.588
10:18 pm 22:18 Cloudy with Thunderstorms 74 23.3 72 22.2 94 94 WNW 7 11 30.03 1017 5 8.0467 0.01 0.254
10:25 pm 22:25 Cloudy with Heavy Thunderstorms 73 22.8 71 21.7 94 94 NE 10 17 29.97 1015 1.75 2.816345 0.06 1.524
10:36 pm 22:36 Cloudy with Light Thunderstorms 73 22.8 71 21.7 94 94 N 14 22 29.97 1015 3 4.82802 0.2 5.08
10:45 pm 22:45 Cloudy with Heavy Thunderstorms 72 22.2 69 20.6 91 91 N 16 26 29.97 1015 1.75 2.816345 0.34 8.636
10:50 pm 22:50 Cloudy with Nearby Thunderstorms 72 22 70 21 94 94 VRB 5 7 30 1016 2 3.21868 0.39 9.906
10:54 pm 22:54 Cloudy with Nearby Thunderstorms 73 22.8 69 20.6 87 87 W 8 13 30 1016 3 4.82802 0.4 10.16
11:06 pm 23:06 Cloudy with Rain 72 22.2 68 20 87 87 NE 12 19 29.97 1015 3 4.82802 0.06 1.524
11:32 pm 23:32 Cloudy with Thunderstorms 71 21.7 68 20 90 90 VRB 3 6 30 1016 5 8.0467 0.1 2.54
11:47 pm 23:47 Mostly Cloudy with Nearby Thunderstorms 71 21.7 68 20 90 90 ENE 6 9 30 1016 8 12.87472 0.13 3.302
11:54 pm 23:54 Mostly Cloudy with Nearby Thunderstorms 71 21.7 69 20.6 94 94 NE 5 7 29.98 1015 8 12.87472 0.13 3.302

Powered by AerisWeather